Вернуться в каталог

ATLAS 5 CENTAUR R/B

АктивенLEO
NORAD 31702·ROCKET BODY·🇺🇸 United States

Запущен Jun 15, 2007 с Cape Canaveral Space Force Station

Loading…

Ближайшие Пролёты (ближайшие 24 часа)

TLE

СвежийSource: Space-Track

Эпоха: Sep 14, 2026, 14:16 UTC

1 31702U 07027B   26257.59502281  .00010103  00000-0  37959-3 0  9994
2 31702  63.3061 311.6387 0492399  45.3068 318.7040 14.58033471123831

Отслеживайте ATLAS 5 CENTAUR R/B в реальном времени с AllMySat

Download on the App Store